�������l�o���
Date,Time,MP-1(��Sv/h),MP-2(��Sv/h),MP-3(��Sv/h),MP-4(��Sv/h),MP-5(��Sv/h),MP-6(��Sv/h),MP-7(��Sv/h),����,����(m/s),���J
2019/05/08,00:00,0.194,0.182,0.296,0.278,0.270,0.149,0.090,�k��,3.7,��
2019/05/08,00:10,0.194,0.183,0.295,0.276,0.270,0.147,0.091,�k��,3.6,��
2019/05/08,00:20,0.197,0.183,0.295,0.275,0.270,0.148,0.090,���k��,2.9,��
2019/05/08,00:30,0.194,0.183,0.295,0.276,0.270,0.148,0.090,��,4.0,��
2019/05/08,00:40,0.194,0.183,0.296,0.276,0.271,0.149,0.091,�k��,1.9,��
2019/05/08,00:50,0.194,0.184,0.295,0.275,0.271,0.148,0.089,���쐼,1.3,��
2019/05/08,01:00,0.194,0.182,0.296,0.276,0.270,0.148,0.090,�k��,2.8,��
2019/05/08,01:10,0.194,0.182,0.294,0.276,0.270,0.148,0.091,���k��,1.8,��
2019/05/08,01:20,0.194,0.183,0.297,0.275,0.270,0.149,0.090,��,3.4,��
2019/05/08,01:30,0.194,0.184,0.296,0.275,0.271,0.148,0.091,��,3.8,��
2019/05/08,01:40,0.194,0.182,0.293,0.275,0.270,0.149,0.091,��,4.2,��
2019/05/08,01:50,0.195,0.183,0.296,0.275,0.269,0.148,0.090,��,6.7,��
2019/05/08,02:00,0.195,0.182,0.295,0.276,0.270,0.149,0.090,���k��,5.1,��
2019/05/08,02:10,0.195,0.182,0.294,0.276,0.272,0.148,0.090,��,3.8,��
2019/05/08,02:20,0.195,0.183,0.297,0.276,0.269,0.148,0.090,���k��,3.3,��
2019/05/08,02:30,0.193,0.183,0.296,0.275,0.271,0.149,0.090,���k��,4.5,��
2019/05/08,02:40,0.195,0.183,0.295,0.277,0.271,0.148,0.090,��,4.8,��
2019/05/08,02:50,0.194,0.182,0.297,0.276,0.269,0.147,0.090,���k��,3.2,��
2019/05/08,03:00,0.194,0.183,0.295,0.275,0.271,0.148,0.089,���쐼,2.0,��
2019/05/08,03:10,0.194,0.182,0.294,0.275,0.271,0.148,0.091,���k��,3.3,��
2019/05/08,03:20,0.195,0.182,0.296,0.276,0.269,0.148,0.090,�k��,2.1,��
2019/05/08,03:30,0.193,0.182,0.296,0.276,0.271,0.148,0.090,�k��,2.0,��
2019/05/08,03:40,0.194,0.183,0.296,0.276,0.271,0.148,0.092,�k��,0.8,��
2019/05/08,03:50,0.194,0.181,0.297,0.276,0.269,0.147,0.090,���k��,2.8,��
2019/05/08,04:00,0.196,0.183,0.295,0.275,0.270,0.147,0.090,��쓌,1.5,��
2019/05/08,04:10,0.195,0.183,0.294,0.275,0.270,0.147,0.091,��쐼,1.0,��
2019/05/08,04:20,0.195,0.183,0.297,0.278,0.269,0.147,0.090,�k�k��,2.9,��
2019/05/08,04:30,0.194,0.183,0.297,0.275,0.271,0.148,0.090,-,CALM,��
2019/05/08,04:40,0.194,0.182,0.294,0.276,0.269,0.148,0.090,�k�k��,1.3,��
2019/05/08,04:50,0.194,0.182,0.296,0.276,0.269,0.148,0.090,�k��,3.2,��
2019/05/08,05:00,0.193,0.182,0.296,0.277,0.271,0.148,0.091,���k��,3.7,��
2019/05/08,05:10,0.194,0.184,0.295,0.276,0.269,0.148,0.090,��,1.8,��
2019/05/08,05:20,0.194,0.182,0.294,0.275,0.269,0.148,0.090,-,CALM,��
2019/05/08,05:30,0.195,0.182,0.296,0.276,0.269,0.148,0.090,�쐼,1.4,��
2019/05/08,05:40,0.194,0.182,0.295,0.275,0.270,0.148,0.090,��,1.3,��
2019/05/08,05:50,0.195,0.183,0.294,0.276,0.270,0.148,0.089,��,1.1,��
2019/05/08,06:00,0.193,0.182,0.296,0.275,0.268,0.148,0.090,���쓌,2.3,��
2019/05/08,06:10,0.193,0.183,0.295,0.275,0.271,0.148,0.090,�쐼,0.9,��
2019/05/08,06:20,0.195,0.183,0.296,0.277,0.269,0.149,0.089,�k�k��,0.8,��
2019/05/08,06:30,0.194,0.183,0.295,0.276,0.269,0.149,0.091,�쓌,2.3,��
2019/05/08,06:40,0.194,0.182,0.294,0.275,0.272,0.149,0.090,�쓌,2.0,��
2019/05/08,06:50,0.195,0.182,0.296,0.276,0.270,0.149,0.090,-,CALM,��
2019/05/08,07:00,0.194,0.183,0.294,0.274,0.272,0.148,0.090,-,CALM,��
2019/05/08,07:10,0.195,0.181,0.294,0.276,0.270,0.149,0.090,���쓌,0.6,��
2019/05/08,07:20,0.194,0.181,0.292,0.273,0.271,0.148,0.090,��,0.8,��
2019/05/08,07:30,0.195,0.181,0.294,0.275,0.271,0.148,0.090,�쓌,3.4,��
2019/05/08,07:40,0.193,0.181,0.292,0.275,0.270,0.147,0.090,��,2.9,��
2019/05/08,07:50,0.195,0.182,0.295,0.272,0.271,0.148,0.091,��쓌,3.3,��
2019/05/08,08:00,0.194,0.183,0.295,0.275,0.270,0.148,0.089,��쓌,3.0,��
2019/05/08,08:10,0.195,0.183,0.297,0.274,0.270,0.147,0.090,�쓌,3.4,��
2019/05/08,08:20,0.193,0.181,0.294,0.272,0.270,0.147,0.090,��쓌,3.0,��
2019/05/08,08:30,0.194,0.183,0.297,0.278,0.268,0.148,0.090,��쓌,2.8,��
2019/05/08,08:40,0.194,0.181,0.296,0.275,0.274,0.147,0.091,��쓌,4.4,��
2019/05/08,08:50,0.193,0.182,0.297,0.273,0.268,0.148,0.090,��쓌,6.2,��
2019/05/08,09:00,0.194,0.184,0.295,0.276,0.271,0.148,0.091,��쓌,6.4,��
2019/05/08,09:10,0.195,0.182,0.296,0.277,0.270,0.148,0.090,��쓌,5.9,��
2019/05/08,09:20,0.193,0.182,0.295,0.275,0.268,0.148,0.091,��쓌,6.0,��
2019/05/08,09:30,0.194,0.182,0.295,0.275,0.272,0.148,0.091,��,4.8,��
2019/05/08,09:40,0.194,0.182,0.295,0.278,0.270,0.148,0.090,��,6.4,��
2019/05/08,09:50,0.193,0.184,0.297,0.276,0.270,0.149,0.091,��쓌,4.6,��
2019/05/08,10:00,0.196,0.181,0.296,0.275,0.272,0.148,0.092,��쓌,4.0,��
2019/05/08,10:10,0.193,0.182,0.297,0.272,0.270,0.147,0.090,��쓌,3.2,��
2019/05/08,10:20,0.192,0.183,0.295,0.273,0.269,0.147,0.091,��,3.7,��
2019/05/08,10:30,0.193,0.182,0.293,0.273,0.269,0.148,0.091,�쐼,2.6,��
2019/05/08,10:40,0.196,0.181,0.291,0.273,0.272,0.150,0.091,��,7.9,��
2019/05/08,10:50,0.195,0.182,0.296,0.277,0.271,0.148,0.090,��쓌,8.5,��
2019/05/08,11:00,0.193,0.183,0.295,0.279,0.269,0.147,0.091,��쓌,9.3,��
2019/05/08,11:10,0.192,0.182,0.293,0.276,0.272,0.149,0.090,��쓌,8.1,��
2019/05/08,11:20,0.195,0.182,0.293,0.274,0.272,0.149,0.091,��쓌,10.1,��
2019/05/08,11:30,0.194,0.184,0.297,0.279,0.271,0.148,0.091,��쓌,11.1,��
2019/05/08,11:40,0.194,0.182,0.296,0.278,0.269,0.149,0.090,��쓌,11.3,��
2019/05/08,11:50,0.194,0.183,0.295,0.277,0.272,0.148,0.091,��쓌,11.0,��
2019/05/08,12:00,0.195,0.184,0.294,0.277,0.270,0.149,0.092,��,11.2,��
2019/05/08,12:10,0.194,0.182,0.298,0.278,0.271,0.149,0.091,��,10.3,��
2019/05/08,12:20,0.194,0.184,0.297,0.275,0.273,0.149,0.092,��,10.7,��
2019/05/08,12:30,0.195,0.184,0.294,0.275,0.269,0.150,0.090,��,10.1,��
2019/05/08,12:40,0.194,0.183,0.294,0.280,0.270,0.149,0.091,��,9.8,��
2019/05/08,12:50,0.193,0.185,0.298,0.278,0.275,0.148,0.091,��,10.9,��
2019/05/08,13:00,0.195,0.183,0.298,0.276,0.271,0.149,0.090,��,9.0,��
2019/05/08,13:10,0.195,0.182,0.295,0.279,0.269,0.150,0.091,��,8.9,��
2019/05/08,13:20,0.194,0.184,0.295,0.279,0.270,0.148,0.091,��쓌,10.1,��
2019/05/08,13:30,0.192,0.184,0.294,0.277,0.273,0.149,0.090,��,10.6,��
2019/05/08,13:40,0.196,0.183,0.296,0.275,0.271,0.149,0.092,��쓌,9.6,��
2019/05/08,13:50,0.195,0.184,0.297,0.278,0.271,0.148,0.091,��,9.2,��
2019/05/08,14:00,0.193,0.182,0.296,0.278,0.274,0.149,0.091,��쓌,8.4,��
2019/05/08,14:10,0.195,0.184,0.295,0.276,0.271,0.149,0.091,��,7.8,��
2019/05/08,14:20,0.196,0.183,0.294,0.279,0.270,0.149,0.092,��,8.7,��
2019/05/08,14:30,0.195,0.183,0.299,0.279,0.274,0.150,0.091,��,9.3,��
2019/05/08,14:40,0.194,0.185,0.297,0.278,0.273,0.149,0.091,��,8.8,��
2019/05/08,14:50,0.196,0.183,0.296,0.279,0.271,0.150,0.092,��,8.6,��
2019/05/08,15:00,0.195,0.185,0.295,0.279,0.269,0.150,0.091,��,9.3,��
2019/05/08,15:10,0.195,0.184,0.294,0.277,0.271,0.150,0.091,��,10.6,��
2019/05/08,15:20,0.194,0.184,0.298,0.282,0.274,0.149,0.092,��,10.7,��
2019/05/08,15:30,0.197,0.184,0.298,0.278,0.271,0.149,0.091,��,9.5,��
2019/05/08,15:40,0.197,0.185,0.294,0.280,0.270,0.149,0.092,��,9.5,��
2019/05/08,15:50,0.195,0.183,0.300,0.280,0.269,0.150,0.091,��,9.3,��
2019/05/08,16:00,0.193,0.184,0.299,0.278,0.273,0.148,0.091,��,9.6,��
2019/05/08,16:10,0.197,0.185,0.299,0.280,0.272,0.149,0.091,��,9.8,��
2019/05/08,16:20,0.196,0.184,0.299,0.277,0.271,0.150,0.092,��,9.6,��
2019/05/08,16:30,0.195,0.185,0.298,0.279,0.269,0.149,0.092,��,9.3,��
2019/05/08,16:40,0.196,0.184,0.300,0.279,0.273,0.149,0.091,��,9.2,��
2019/05/08,16:50,0.197,0.185,0.297,0.279,0.273,0.150,0.091,��,9.2,��
2019/05/08,17:00,0.195,0.185,0.300,0.278,0.270,0.149,0.092,��,8.9,��
2019/05/08,17:10,0.196,0.186,0.298,0.280,0.273,0.149,0.091,��,8.7,��
2019/05/08,17:20,0.195,0.184,0.300,0.279,0.271,0.149,0.091,��,8.7,��
2019/05/08,17:30,0.198,0.185,0.298,0.280,0.272,0.150,0.092,��,7.3,��
2019/05/08,17:40,0.196,0.185,0.300,0.279,0.274,0.149,0.091,��,7.7,��
2019/05/08,17:50,0.196,0.184,0.297,0.280,0.272,0.151,0.090,��,7.5,��
2019/05/08,18:00,0.195,0.185,0.298,0.278,0.275,0.149,0.091,��,7.4,��
2019/05/08,18:10,0.196,0.184,0.297,0.280,0.272,0.150,0.091,��,8.4,��
2019/05/08,18:20,0.195,0.185,0.300,0.278,0.275,0.150,0.092,��쐼,8.4,��
2019/05/08,18:30,0.197,0.185,0.297,0.280,0.273,0.150,0.092,��쐼,9.3,��
2019/05/08,18:40,0.196,0.185,0.300,0.279,0.275,0.150,0.092,��쐼,8.4,��
2019/05/08,18:50,0.196,0.185,0.298,0.279,0.272,0.150,0.092,��쐼,8.2,��
2019/05/08,19:00,0.195,0.185,0.299,0.279,0.275,0.150,0.091,��쐼,9.0,��
2019/05/08,19:10,0.196,0.186,0.298,0.280,0.272,0.150,0.091,��쐼,7.0,��
2019/05/08,19:20,0.196,0.185,0.299,0.279,0.274,0.150,0.092,��쐼,7.0,��
2019/05/08,19:30,0.196,0.185,0.297,0.280,0.272,0.149,0.091,��쐼,6.6,��
2019/05/08,19:40,0.195,0.185,0.299,0.280,0.273,0.150,0.092,��쐼,6.0,��
2019/05/08,19:50,0.197,0.184,0.299,0.279,0.272,0.151,0.092,��쐼,5.3,��
2019/05/08,20:00,0.196,0.185,0.299,0.281,0.274,0.150,0.091,��쐼,6.0,��
2019/05/08,20:10,0.197,0.185,0.300,0.279,0.273,0.150,0.092,�쐼,7.3,��
2019/05/08,20:20,0.195,0.186,0.299,0.281,0.273,0.150,0.091,�쐼,7.4,��
2019/05/08,20:30,0.197,0.185,0.300,0.280,0.274,0.149,0.091,�쐼,8.1,��
2019/05/08,20:40,0.196,0.185,0.300,0.280,0.272,0.149,0.092,���쐼,7.6,��
2019/05/08,20:50,0.197,0.185,0.299,0.281,0.272,0.149,0.092,���쐼,7.8,��
2019/05/08,21:00,0.196,0.186,0.297,0.280,0.272,0.150,0.092,���쐼,7.3,��
2019/05/08,21:10,0.196,0.185,0.299,0.280,0.274,0.150,0.091,���쐼,6.6,��
2019/05/08,21:20,0.197,0.184,0.298,0.279,0.273,0.149,0.092,���쐼,6.8,��
2019/05/08,21:30,0.195,0.184,0.300,0.281,0.273,0.152,0.092,���쐼,6.6,��
2019/05/08,21:40,0.197,0.185,0.299,0.278,0.272,0.150,0.091,�쐼,3.7,��
2019/05/08,21:50,0.196,0.185,0.299,0.280,0.271,0.150,0.092,�쐼,5.1,��
2019/05/08,22:00,0.197,0.184,0.300,0.280,0.274,0.150,0.092,��쐼,5.5,��
2019/05/08,22:10,0.197,0.186,0.298,0.279,0.273,0.150,0.092,��쐼,6.2,��
2019/05/08,22:20,0.197,0.185,0.300,0.281,0.274,0.149,0.092,��쐼,6.7,��
2019/05/08,22:30,0.197,0.185,0.299,0.280,0.272,0.151,0.091,��쐼,6.0,��
2019/05/08,22:40,0.195,0.186,0.299,0.281,0.273,0.150,0.091,��쐼,7.0,��
2019/05/08,22:50,0.197,0.184,0.299,0.279,0.273,0.149,0.092,�쐼,7.1,��
2019/05/08,23:00,0.197,0.185,0.298,0.279,0.271,0.150,0.091,�쐼,7.0,��
2019/05/08,23:10,0.196,0.185,0.300,0.281,0.274,0.150,0.091,�쐼,7.1,��
2019/05/08,23:20,0.197,0.184,0.298,0.278,0.271,0.150,0.092,���쐼,6.4,��
2019/05/08,23:30,0.196,0.184,0.300,0.280,0.273,0.150,0.092,�쐼,7.0,��
2019/05/08,23:40,0.196,0.185,0.299,0.279,0.272,0.150,0.092,�쐼,6.2,��
2019/05/08,23:50,0.197,0.185,0.300,0.281,0.274,0.150,0.092,��쐼,5.6,��
